Time,TemperatureF,DewpointF,PressureIn,WindDirection,WindDirectionDegrees,WindSpeedMPH,WindSpeedGustMPH,Humidity,HourlyPrecipIn,Conditions,Clouds,dailyrainin,SoftwareType,DateUTC
2017-03-27 00:00:00,64.8,57.4,30.14,SSE,155,0.0,4.0,77,0.00,,,0.00,Wunderground v.1.12,2017-03-27 04:00:00,
2017-03-27 00:05:00,64.8,57.4,30.14,SSE,163,0.0,0.0,77,0.00,,,0.00,Wunderground v.1.12,2017-03-27 04:05:00,
2017-03-27 00:15:00,64.4,57.0,30.14,SSE,163,0.0,0.0,77,0.00,,,0.00,Wunderground v.1.12,2017-03-27 04:15:00,
2017-03-27 00:20:00,64.3,57.3,30.14,SSE,163,0.0,0.0,78,0.00,,,0.00,Wunderground v.1.12,2017-03-27 04:20:00,
2017-03-27 00:25:00,64.1,57.1,30.14,SSE,163,0.0,0.0,78,0.00,,,0.00,Wunderground v.1.12,2017-03-27 04:25:00,
2017-03-27 00:30:00,63.9,57.3,30.14,SSE,163,0.0,0.0,79,0.00,,,0.00,Wunderground v.1.12,2017-03-27 04:30:00,
2017-03-27 00:35:00,63.7,57.1,30.14,SSE,163,0.0,0.0,79,0.00,,,0.00,Wunderground v.1.12,2017-03-27 04:35:00,
2017-03-27 00:40:00,63.7,57.1,30.14,SSE,163,0.0,0.0,79,0.00,,,0.00,Wunderground v.1.12,2017-03-27 04:40:00,
2017-03-27 00:50:00,63.6,57.3,30.14,SSE,163,0.0,0.0,80,0.00,,,0.00,Wunderground v.1.12,2017-03-27 04:50:00,
2017-03-27 00:55:00,63.5,57.2,30.14,SSE,163,0.0,0.0,80,0.00,,,0.00,Wunderground v.1.12,2017-03-27 04:55:00,
2017-03-27 01:00:00,63.4,57.1,30.13,SSE,163,0.0,0.0,80,0.00,,,0.00,Wunderground v.1.12,2017-03-27 05:00:00,
2017-03-27 01:05:00,63.2,56.9,30.13,SSE,161,0.0,0.0,80,0.00,,,0.00,Wunderground v.1.12,2017-03-27 05:05:00,
2017-03-27 01:10:00,63.1,56.8,30.13,SSE,161,0.0,0.0,80,0.00,,,0.00,Wunderground v.1.12,2017-03-27 05:10:00,
2017-03-27 01:20:00,62.8,56.9,30.12,SSE,154,0.0,0.0,81,0.00,,,0.00,Wunderground v.1.12,2017-03-27 05:20:00,
2017-03-27 01:25:00,62.6,56.7,30.12,SSE,154,0.0,0.0,81,0.00,,,0.00,Wunderground v.1.12,2017-03-27 05:25:00,
2017-03-27 01:30:00,62.5,56.6,30.12,SSE,154,0.0,0.0,81,0.00,,,0.00,Wunderground v.1.12,2017-03-27 05:30:00,
2017-03-27 01:40:00,62.3,56.7,30.12,SSW,193,0.0,0.0,82,0.00,,,0.00,Wunderground v.1.12,2017-03-27 05:40:00,
2017-03-27 01:45:00,62.1,56.5,30.12,SSW,193,0.0,0.0,82,0.00,,,0.00,Wunderground v.1.12,2017-03-27 05:45:00,
2017-03-27 01:50:00,62.1,56.5,30.12,SSW,193,0.0,0.0,82,0.00,,,0.00,Wunderground v.1.12,2017-03-27 05:50:00,
2017-03-27 01:55:00,61.9,56.3,30.12,SSW,193,0.0,0.0,82,0.00,,,0.00,Wunderground v.1.12,2017-03-27 05:55:00,
2017-03-27 02:00:00,61.8,56.6,30.12,SSW,193,0.0,0.0,83,0.00,,,0.00,Wunderground v.1.12,2017-03-27 06:00:00,
2017-03-27 02:10:00,61.7,56.5,30.12,South,181,0.0,1.0,83,0.00,,,0.00,Wunderground v.1.12,2017-03-27 06:10:00,
2017-03-27 02:15:00,61.6,56.4,30.12,South,181,0.0,0.0,83,0.00,,,0.00,Wunderground v.1.12,2017-03-27 06:15:00,
2017-03-27 02:20:00,61.5,56.3,30.12,South,181,0.0,0.0,83,0.00,,,0.00,Wunderground v.1.12,2017-03-27 06:20:00,
2017-03-27 02:25:00,61.4,56.5,30.12,South,181,0.0,0.0,84,0.00,,,0.00,Wunderground v.1.12,2017-03-27 06:25:00,
2017-03-27 02:30:00,61.3,56.4,30.12,South,181,0.0,0.0,84,0.00,,,0.00,Wunderground v.1.12,2017-03-27 06:30:00,
2017-03-27 02:40:00,61.4,56.5,30.12,South,181,0.0,0.0,84,0.00,,,0.00,Wunderground v.1.12,2017-03-27 06:40:00,
2017-03-27 02:45:00,61.6,56.7,30.11,South,181,0.0,0.0,84,0.00,,,0.00,Wunderground v.1.12,2017-03-27 06:45:00,
2017-03-27 02:50:00,61.6,56.7,30.11,South,181,0.0,0.0,84,0.00,,,0.00,Wunderground v.1.12,2017-03-27 06:50:00,
2017-03-27 02:55:00,61.7,56.8,30.11,South,181,0.0,0.0,84,0.00,,,0.00,Wunderground v.1.12,2017-03-27 06:55:00,
2017-03-27 03:05:00,61.6,56.7,30.12,South,181,0.0,0.0,84,0.00,,,0.00,Wunderground v.1.12,2017-03-27 07:05:00,
2017-03-27 03:10:00,61.6,56.7,30.12,South,181,0.0,0.0,84,0.00,,,0.00,Wunderground v.1.12,2017-03-27 07:10:00,
2017-03-27 03:15:00,61.6,56.7,30.11,South,181,0.0,0.0,84,0.00,,,0.00,Wunderground v.1.12,2017-03-27 07:15:00,
2017-03-27 03:25:00,61.7,56.8,30.11,South,181,0.0,0.0,84,0.00,,,0.00,Wunderground v.1.12,2017-03-27 07:25:00,
2017-03-27 03:30:00,61.8,56.9,30.11,South,181,0.0,0.0,84,0.00,,,0.00,Wunderground v.1.12,2017-03-27 07:30:00,
2017-03-27 03:35:00,61.9,57.0,30.11,South,181,0.0,0.0,84,0.00,,,0.00,Wunderground v.1.12,2017-03-27 07:35:00,
2017-03-27 03:40:00,62.0,57.1,30.11,South,181,0.0,0.0,84,0.00,,,0.00,Wunderground v.1.12,2017-03-27 07:40:00,
2017-03-27 03:45:00,62.1,57.2,30.11,South,181,0.0,0.0,84,0.00,,,0.00,Wunderground v.1.12,2017-03-27 07:45:00,
2017-03-27 03:55:00,62.1,57.2,30.11,SW,214,0.0,0.0,84,0.00,,,0.00,Wunderground v.1.12,2017-03-27 07:55:00,
2017-03-27 04:00:00,62.0,57.1,30.10,SSW,212,0.0,0.0,84,0.00,,,0.00,Wunderground v.1.12,2017-03-27 08:00:00,
2017-03-27 04:05:00,62.0,57.1,30.10,SSW,212,0.0,0.0,84,0.00,,,0.00,Wunderground v.1.12,2017-03-27 08:05:00,
2017-03-27 04:10:00,62.0,57.1,30.10,SSW,212,0.0,0.0,84,0.00,,,0.00,Wunderground v.1.12,2017-03-27 08:10:00,
2017-03-27 04:20:00,61.8,56.9,30.10,SSW,212,0.0,0.0,84,0.00,,,0.00,Wunderground v.1.12,2017-03-27 08:20:00,
2017-03-27 04:25:00,61.8,57.2,30.10,SSW,212,0.0,0.0,85,0.00,,,0.00,Wunderground v.1.12,2017-03-27 08:25:00,
2017-03-27 04:30:00,61.8,57.2,30.10,SSW,212,0.0,0.0,85,0.00,,,0.00,Wunderground v.1.12,2017-03-27 08:30:00,
2017-03-27 04:35:00,61.9,57.3,30.10,SSW,212,0.0,0.0,85,0.00,,,0.00,Wunderground v.1.12,2017-03-27 08:35:00,
2017-03-27 04:40:00,61.9,57.3,30.10,SSW,212,0.0,0.0,85,0.00,,,0.00,Wunderground v.1.12,2017-03-27 08:40:00,
2017-03-27 04:50:00,61.8,57.2,30.10,SSW,212,0.0,0.0,85,0.00,,,0.00,Wunderground v.1.12,2017-03-27 08:50:00,
2017-03-27 04:55:00,61.8,57.2,30.10,SSW,212,0.0,0.0,85,0.00,,,0.00,Wunderground v.1.12,2017-03-27 08:55:00,
2017-03-27 05:00:00,61.7,57.5,30.10,SSW,212,0.0,0.0,86,0.00,,,0.00,Wunderground v.1.12,2017-03-27 09:00:00,
2017-03-27 05:05:00,61.6,57.4,30.10,SSW,212,0.0,0.0,86,0.00,,,0.00,Wunderground v.1.12,2017-03-27 09:05:00,
2017-03-27 05:15:00,61.4,57.5,30.10,SSW,212,0.0,0.0,87,0.00,,,0.00,Wunderground v.1.12,2017-03-27 09:15:00,
2017-03-27 05:20:00,61.4,57.5,30.10,SSW,212,0.0,0.0,87,0.00,,,0.00,Wunderground v.1.12,2017-03-27 09:20:00,
2017-03-27 05:25:00,61.3,57.4,30.10,SSW,212,0.0,0.0,87,0.00,,,0.00,Wunderground v.1.12,2017-03-27 09:25:00,
2017-03-27 05:30:00,61.2,57.6,30.11,SSW,212,0.0,0.0,88,0.00,,,0.00,Wunderground v.1.12,2017-03-27 09:30:00,
2017-03-27 05:40:00,61.1,57.5,30.11,SSW,212,0.0,0.0,88,0.00,,,0.00,Wunderground v.1.12,2017-03-27 09:40:00,
2017-03-27 05:45:00,61.0,57.4,30.11,SSW,212,0.0,0.0,88,0.00,,,0.00,Wunderground v.1.12,2017-03-27 09:45:00,
2017-03-27 05:50:00,60.9,57.6,30.11,SSW,212,0.0,0.0,89,0.00,,,0.00,Wunderground v.1.12,2017-03-27 09:50:00,
2017-03-27 05:55:00,60.9,57.9,30.11,SSW,212,0.0,0.0,90,0.00,,,0.00,Wunderground v.1.12,2017-03-27 09:55:00,
2017-03-27 06:00:00,60.8,57.8,30.11,SSW,212,0.0,0.0,90,0.00,,,0.00,Wunderground v.1.12,2017-03-27 10:00:00,
2017-03-27 06:10:00,60.7,58.1,30.11,SSW,212,0.0,0.0,91,0.00,,,0.00,Wunderground v.1.12,2017-03-27 10:10:00,
2017-03-27 06:15:00,60.6,58.0,30.12,SSW,212,0.0,0.0,91,0.00,,,0.00,Wunderground v.1.12,2017-03-27 10:15:00,
2017-03-27 06:20:00,60.5,57.9,30.12,SSW,212,0.0,0.0,91,0.00,,,0.00,Wunderground v.1.12,2017-03-27 10:20:00,
2017-03-27 06:25:00,60.4,58.1,30.12,SSW,212,0.0,0.0,92,0.00,,,0.00,Wunderground v.1.12,2017-03-27 10:25:00,
2017-03-27 06:30:00,60.3,58.0,30.12,SSW,212,0.0,0.0,92,0.00,,,0.00,Wunderground v.1.12,2017-03-27 10:30:00,
2017-03-27 06:40:00,60.3,58.3,30.12,West,259,0.0,0.0,93,0.00,,,0.00,Wunderground v.1.12,2017-03-27 10:40:00,
2017-03-27 06:45:00,60.3,58.3,30.13,WNW,295,0.0,0.0,93,0.00,,,0.00,Wunderground v.1.12,2017-03-27 10:45:00,
2017-03-27 06:50:00,60.3,58.3,30.13,WNW,283,0.0,0.0,93,0.00,,,0.01,Wunderground v.1.12,2017-03-27 10:50:00,
2017-03-27 07:00:00,60.2,58.5,30.13,WNW,287,0.0,0.0,94,0.00,,,0.01,Wunderground v.1.12,2017-03-27 11:00:00,
2017-03-27 07:05:00,60.2,58.5,30.13,West,280,0.0,0.0,94,0.00,,,0.01,Wunderground v.1.12,2017-03-27 11:05:00,
2017-03-27 07:10:00,60.1,58.4,30.13,West,280,0.0,0.0,94,0.00,,,0.02,Wunderground v.1.12,2017-03-27 11:10:00,
2017-03-27 07:15:00,60.1,58.4,30.13,SW,232,0.0,0.0,94,0.00,,,0.02,Wunderground v.1.12,2017-03-27 11:15:00,
2017-03-27 07:20:00,60.0,58.6,30.13,WNW,290,0.0,0.0,95,0.07,,,0.03,Wunderground v.1.12,2017-03-27 11:20:00,
2017-03-27 07:30:00,60.0,58.6,30.14,WSW,245,0.0,2.0,95,0.08,,,0.04,Wunderground v.1.12,2017-03-27 11:30:00,
2017-03-27 07:35:00,60.0,58.6,30.14,WSW,245,1.0,1.0,95,0.05,,,0.05,Wunderground v.1.12,2017-03-27 11:35:00,
2017-03-27 07:40:00,59.9,58.5,30.14,SW,222,1.0,1.0,95,0.05,,,0.05,Wunderground v.1.12,2017-03-27 11:40:00,
2017-03-27 07:45:00,59.9,58.5,30.13,SW,216,0.0,0.0,95,0.05,,,0.05,Wunderground v.1.12,2017-03-27 11:45:00,
2017-03-27 07:55:00,59.8,58.7,30.13,SW,216,0.0,0.0,96,0.00,,,0.05,Wunderground v.1.12,2017-03-27 11:55:00,
2017-03-27 08:00:00,59.8,58.7,30.13,SW,216,0.0,0.0,96,0.00,,,0.05,Wunderground v.1.12,2017-03-27 12:00:00,
2017-03-27 08:05:00,59.8,58.7,30.13,SW,221,0.0,0.0,96,0.00,,,0.05,Wunderground v.1.12,2017-03-27 12:05:00,
2017-03-27 08:10:00,59.8,58.7,30.13,SW,221,0.0,0.0,96,0.00,,,0.05,Wunderground v.1.12,2017-03-27 12:10:00,
2017-03-27 08:15:00,59.8,58.7,30.14,SW,221,0.0,0.0,96,0.00,,,0.05,Wunderground v.1.12,2017-03-27 12:15:00,
2017-03-27 08:25:00,59.8,58.7,30.14,SW,221,0.0,0.0,96,0.00,,,0.05,Wunderground v.1.12,2017-03-27 12:25:00,
2017-03-27 08:30:00,59.9,59.0,30.14,SW,221,0.0,0.0,97,0.00,,,0.05,Wunderground v.1.12,2017-03-27 12:30:00,
2017-03-27 08:35:00,60.0,59.1,30.14,SW,221,0.0,0.0,97,0.00,,,0.05,Wunderground v.1.12,2017-03-27 12:35:00,
2017-03-27 08:40:00,60.1,59.2,30.14,SW,221,0.0,0.0,97,0.00,,,0.05,Wunderground v.1.12,2017-03-27 12:40:00,
2017-03-27 08:50:00,60.5,59.6,30.13,SW,221,0.0,0.0,97,0.00,,,0.05,Wunderground v.1.12,2017-03-27 12:50:00,
2017-03-27 08:55:00,60.7,59.8,30.13,SW,221,0.0,0.0,97,0.00,,,0.05,Wunderground v.1.12,2017-03-27 12:55:00,
2017-03-27 09:00:00,60.8,59.9,30.13,SW,221,0.0,0.0,97,0.00,,,0.05,Wunderground v.1.12,2017-03-27 13:00:00,
2017-03-27 09:05:00,60.8,59.9,30.13,SW,219,0.0,0.0,97,0.00,,,0.05,Wunderground v.1.12,2017-03-27 13:05:00,
2017-03-27 09:15:00,61.0,60.1,30.13,SW,219,0.0,0.0,97,0.00,,,0.05,Wunderground v.1.12,2017-03-27 13:15:00,
2017-03-27 09:20:00,61.2,60.3,30.13,SW,219,0.0,0.0,97,0.00,,,0.05,Wunderground v.1.12,2017-03-27 13:20:00,
2017-03-27 09:25:00,61.2,60.3,30.13,SSW,213,0.0,0.0,97,0.00,,,0.05,Wunderground v.1.12,2017-03-27 13:25:00,
2017-03-27 09:30:00,61.4,60.5,30.13,SSW,213,0.0,0.0,97,0.00,,,0.05,Wunderground v.1.12,2017-03-27 13:30:00,
2017-03-27 09:35:00,61.6,60.4,30.13,SSW,210,0.0,1.0,96,0.00,,,0.05,Wunderground v.1.12,2017-03-27 13:35:00,
2017-03-27 09:45:00,62.1,60.9,30.13,SSW,213,1.0,1.0,96,0.00,,,0.05,Wunderground v.1.12,2017-03-27 13:45:00,
2017-03-27 09:50:00,62.2,61.0,30.13,WSW,250,1.0,1.0,96,0.00,,,0.05,Wunderground v.1.12,2017-03-27 13:50:00,
2017-03-27 09:55:00,62.4,61.2,30.13,WSW,250,1.0,1.0,96,0.00,,,0.05,Wunderground v.1.12,2017-03-27 13:55:00,
2017-03-27 10:00:00,62.6,61.1,30.14,WSW,250,0.0,1.0,95,0.00,,,0.05,Wunderground v.1.12,2017-03-27 14:00:00,
2017-03-27 10:05:00,62.7,61.2,30.14,WSW,250,1.0,1.0,95,0.00,,,0.05,Wunderground v.1.12,2017-03-27 14:05:00,
2017-03-27 10:15:00,62.9,61.1,30.13,SSW,202,0.0,1.0,94,0.00,,,0.05,Wunderground v.1.12,2017-03-27 14:15:00,
2017-03-27 10:20:00,63.2,61.4,30.13,SW,223,0.0,0.0,94,0.00,,,0.05,Wunderground v.1.12,2017-03-27 14:20:00,
2017-03-27 10:25:00,63.4,61.3,30.13,SW,223,0.0,0.0,93,0.00,,,0.05,Wunderground v.1.12,2017-03-27 14:25:00,
2017-03-27 10:34:00,63.9,61.2,30.13,WSW,248,1.0,1.0,91,0.00,,,0.05,Wunderground v.1.12,2017-03-27 14:34:00,
2017-03-27 10:40:00,64.2,61.5,30.13,WSW,255,1.0,1.0,91,0.00,,,0.05,Wunderground v.1.12,2017-03-27 14:40:00,
2017-03-27 10:45:00,64.9,61.9,30.13,WNW,283,1.0,2.0,90,0.00,,,0.05,Wunderground v.1.12,2017-03-27 14:45:00,
2017-03-27 10:50:00,65.7,62.4,30.13,WSW,250,2.0,2.0,89,0.00,,,0.05,Wunderground v.1.12,2017-03-27 14:50:00,
2017-03-27 10:55:00,66.4,62.1,30.13,SSW,205,2.0,2.0,86,0.00,,,0.05,Wunderground v.1.12,2017-03-27 14:55:00,
2017-03-27 11:05:00,67.1,62.8,30.12,SSW,204,2.0,3.0,86,0.00,,,0.05,Wunderground v.1.12,2017-03-27 15:05:00,
2017-03-27 11:10:00,67.4,62.7,30.12,WNW,290,2.0,4.0,85,0.00,,,0.05,Wunderground v.1.12,2017-03-27 15:10:00,
2017-03-27 11:15:00,67.7,62.3,30.12,WNW,283,2.0,2.0,83,0.00,,,0.05,Wunderground v.1.12,2017-03-27 15:15:00,
2017-03-27 11:20:00,67.9,62.5,30.12,WSW,248,3.0,3.0,83,0.00,,,0.05,Wunderground v.1.12,2017-03-27 15:20:00,